This is the latest recevied weather packets stored in our database for station/object SP6PWT-13. If no packets are shown the sender has not sent any weather packets the latest 10 day(s).
| Time | Temp. | Humidity | Pressure | Rain* | Wind** | Luminosity | Snow |
|---|---|---|---|---|---|---|---|
| 1777874813 | 15° C | 56% | 997.6 hPa | 0 mm | - | 188 W/m² | - |
| 1777874513 | 15° C | 57% | 997.5 hPa | 0 mm | - | 161 W/m² | - |
| 1777874212 | 15° C | 56% | 997.3 hPa | 0 mm | - | 145 W/m² | - |
| 1777873912 | 15° C | 56% | 997.3 hPa | 0 mm | - | 142 W/m² | - |
| 1777873611 | 15° C | 56% | 997.5 hPa | 0 mm | - | 136 W/m² | - |
| 1777873311 | 13.89° C | 58% | 997.2 hPa | 0 mm | - | 153 W/m² | - |
| 1777873011 | 13.33° C | 59% | 997.4 hPa | 0 mm | - | 90 W/m² | - |
| 1777872711 | 13.33° C | 59% | 997.4 hPa | 0 mm | - | 80 W/m² | - |
| 1777872410 | 13.33° C | 59% | 997.4 hPa | 0 mm | - | 72 W/m² | - |
| 1777872109 | 12.78° C | 58% | 997.4 hPa | 0 mm | - | 66 W/m² | - |
| 1777871809 | 12.78° C | 60% | 997.4 hPa | 0 mm | - | 63 W/m² | - |
| 1777871508 | 12.78° C | 60% | 997.3 hPa | 0 mm | - | 61 W/m² | - |
| 1777871208 | 12.78° C | 59% | 997.3 hPa | 0 mm | - | 58 W/m² | - |
| 1777870908 | 12.78° C | 59% | 997.3 hPa | 0 mm | - | 56 W/m² | - |
| 1777870607 | 12.78° C | 59% | 997.3 hPa | 0 mm | - | 55 W/m² | - |
| 1777870307 | 12.78° C | 60% | 997.2 hPa | 0 mm | - | 52 W/m² | - |
| 1777870007 | 12.78° C | 58% | 997.3 hPa | 0 mm | - | 50 W/m² | - |
| 1777869706 | 13.33° C | 56% | 997.2 hPa | 0 mm | - | 48 W/m² | - |
| 1777869405 | 13.33° C | 54% | 997.1 hPa | 0 mm | - | 47 W/m² | - |
| 1777869104 | 13.33° C | 54% | 997.1 hPa | 0 mm | - | 45 W/m² | - |
| 1777868804 | 13.33° C | 55% | 997.3 hPa | 0 mm | - | 43 W/m² | - |
| 1777868503 | 13.33° C | 55% | 997.3 hPa | 0 mm | - | 40 W/m² | - |
| 1777868202 | 13.89° C | 53% | 997.4 hPa | 0 mm | - | 36 W/m² | - |
| 1777867902 | 13.89° C | 53% | 997.3 hPa | 0 mm | - | 31 W/m² | - |
| 1777867601 | 13.89° C | 52% | 997.2 hPa | 0 mm | - | 27 W/m² | - |
* Rain latest hour (hover to see other rain measurements)
** Current wind speed in m/s (hover to see current wind gust speed)